Tracking 29487 objects as of 11-Sep-2024
HD Live streaming from Space Station
objects crossing your sky now

COSMOS 1691 DEB

Track COSMOS 1691 DEB now!
10-day predictions


NORAD ID: 16272
Int'l Code: 1985-094R
Perigee: 1,330.4 km
Apogee: 1,408.7 km
Inclination: 82.6 °
Period: 113.0 minutes
Semi major axis: 7740 km
RCS: 0.0423 m2 (small)
Launch date: October 9, 1985
Source: Commonwealth of Independent States (former USSR) (CIS)
Launch site: PLESETSK MISSILE AND SPACE COMPLEX (PKMTR)

Note: This is SATELLITE DEBRIS
Your satellite tracking list
Your tracking list is empty




NASA's NSSDC Master Catalog

Two Line Element Set (TLE):
1 16272U 85094R   24254.82720469  .00000682  00000-0  31519-2 0  9996
2 16272  82.6195 195.2303 0050550  12.0676  53.3616 12.74813641805892
Source of the keplerian elements: AFSPC